Time,TemperatureF,DewpointF,PressureIn,WindDirection,WindDirectionDegrees,WindSpeedMPH,WindSpeedGustMPH,Humidity,HourlyPrecipIn,Conditions,Clouds,dailyrainin,SoftwareType,DateUTC
2014-01-18 12:25:00,66.7,35.8,30.10,SE,135,4.4,4.4,32,0.00,,,0.00,WUHU216HW,2014-01-18 20:25:00,
2014-01-18 12:26:00,66.7,35.8,30.10,SE,135,4.4,4.4,32,0.00,,,0.00,WUHU216HW,2014-01-18 20:26:00,
2014-01-18 12:28:00,66.9,35.9,30.09,NE,45,0.0,4.4,32,0.00,,,0.00,WUHU216HW,2014-01-18 20:28:00,
2014-01-18 12:33:00,67.2,35.5,30.09,ESE,113,0.0,5.3,31,0.00,,,0.00,WUHU216HW,2014-01-18 20:33:00,
2014-01-18 12:38:00,67.6,36.5,30.09,East,90,5.8,5.8,32,0.00,,,0.00,WUHU216HW,2014-01-18 20:38:00,
2014-01-18 12:44:00,68.1,36.3,30.09,East,90,0.6,5.8,31,0.00,,,0.00,WUHU216HW,2014-01-18 20:44:00,
2014-01-18 12:49:00,68.3,35.7,30.09,East,90,1.7,2.2,30,0.00,,,0.00,WUHU216HW,2014-01-18 20:49:00,
2014-01-18 12:54:00,68.7,36.0,30.08,ESE,113,0.0,1.7,30,0.00,,,0.00,WUHU216HW,2014-01-18 20:54:00,
2014-01-18 12:59:00,69.2,35.5,30.08,NE,45,0.0,3.5,29,0.00,,,0.00,WUHU216HW,2014-01-18 20:59:00,
2014-01-18 13:04:00,69.4,35.7,30.08,ENE,68,4.4,4.4,29,0.00,,,0.00,WUHU216HW,2014-01-18 21:04:00,
2014-01-18 13:09:00,69.6,35.8,30.07,NE,45,0.0,4.4,29,0.00,,,0.00,WUHU216HW,2014-01-18 21:09:00,
2014-01-18 13:14:00,69.9,34.1,30.07,East,90,0.0,2.6,27,0.00,,,0.00,WUHU216HW,2014-01-18 21:14:00,
2014-01-18 13:19:00,70.1,34.3,30.07,NE,45,0.0,4.6,27,0.00,,,0.00,WUHU216HW,2014-01-18 21:19:00,
2014-01-18 13:24:00,70.1,34.3,30.07,ESE,113,4.2,4.6,27,0.00,,,0.00,WUHU216HW,2014-01-18 21:24:00,
2014-01-18 13:29:00,70.3,34.4,30.07,East,90,0.0,4.2,27,0.00,,,0.00,WUHU216HW,2014-01-18 21:29:00,
2014-01-18 13:34:00,70.3,34.4,30.07,ESE,113,0.0,8.0,27,0.00,,,0.00,WUHU216HW,2014-01-18 21:34:00,
2014-01-18 13:40:00,70.5,34.6,30.07,ESE,113,0.0,8.0,27,0.00,,,0.00,WUHU216HW,2014-01-18 21:40:00,
2014-01-18 13:45:00,70.5,34.6,30.07,East,90,1.5,1.5,27,0.00,,,0.00,WUHU216HW,2014-01-18 21:45:00,
2014-01-18 13:50:00,70.7,34.7,30.07,ESE,113,0.0,1.5,27,0.00,,,0.00,WUHU216HW,2014-01-18 21:50:00,
2014-01-18 13:55:00,70.8,34.9,30.06,East,90,0.4,4.0,27,0.00,,,0.00,WUHU216HW,2014-01-18 21:55:00,
2014-01-18 14:00:00,71.2,36.2,30.06,North,0,1.7,4.0,28,0.00,,,0.00,WUHU216HW,2014-01-18 22:00:00,
2014-01-18 14:05:00,71.2,36.2,30.06,ESE,113,4.9,4.9,28,0.00,,,0.00,WUHU216HW,2014-01-18 22:05:00,
2014-01-18 14:10:00,71.4,35.4,30.06,East,90,0.0,4.9,27,0.00,,,0.00,WUHU216HW,2014-01-18 22:10:00,
2014-01-18 14:15:00,71.4,36.4,30.06,ESE,113,1.3,4.9,28,0.00,,,0.00,WUHU216HW,2014-01-18 22:15:00,
2014-01-18 14:20:00,71.4,34.3,30.06,ESE,113,1.3,1.3,26,0.00,,,0.00,WUHU216HW,2014-01-18 22:20:00,
2014-01-18 14:25:00,71.7,35.7,30.06,East,90,0.0,1.3,27,0.00,,,0.00,WUHU216HW,2014-01-18 22:25:00,
2014-01-18 14:30:00,71.9,35.8,30.06,East,90,2.6,2.6,27,0.00,,,0.00,WUHU216HW,2014-01-18 22:30:00,
2014-01-18 14:35:00,72.1,35.0,30.06,East,90,0.0,2.6,26,0.00,,,0.00,WUHU216HW,2014-01-18 22:35:00,
2014-01-18 14:41:00,72.3,36.1,30.06,East,90,0.0,1.3,27,0.00,,,0.00,WUHU216HW,2014-01-18 22:41:00,
2014-01-18 14:46:00,72.3,35.1,30.05,ESE,113,0.0,0.0,26,0.00,,,0.00,WUHU216HW,2014-01-18 22:46:00,
2014-01-18 14:51:00,72.5,35.3,30.05,East,90,0.0,0.0,26,0.00,,,0.00,WUHU216HW,2014-01-18 22:51:00,
2014-01-18 14:56:00,72.5,35.3,30.05,East,90,0.0,0.2,26,0.00,,,0.00,WUHU216HW,2014-01-18 22:56:00,
2014-01-18 15:01:00,72.5,35.3,30.05,East,90,0.0,0.2,26,0.00,,,0.00,WUHU216HW,2014-01-18 23:01:00,
2014-01-18 15:06:00,72.5,35.3,30.05,ESE,113,0.8,0.8,26,0.00,,,0.00,WUHU216HW,2014-01-18 23:06:00,
2014-01-18 15:11:00,72.3,34.1,30.05,East,90,4.9,4.9,25,0.00,,,0.00,WUHU216HW,2014-01-18 23:11:00,
2014-01-18 15:16:00,72.3,34.1,30.05,East,90,3.5,4.9,25,0.00,,,0.00,WUHU216HW,2014-01-18 23:16:00,
2014-01-18 15:21:00,72.1,33.9,30.05,ENE,68,2.6,3.5,25,0.00,,,0.00,WUHU216HW,2014-01-18 23:21:00,
2014-01-18 15:26:00,72.1,33.9,30.05,East,90,0.0,3.5,25,0.00,,,0.00,WUHU216HW,2014-01-18 23:26:00,
2014-01-18 15:31:00,72.1,33.9,30.04,ESE,113,4.0,4.0,25,0.00,,,0.00,WUHU216HW,2014-01-18 23:31:00,
2014-01-18 15:37:00,72.1,33.9,30.05,ESE,113,0.0,4.0,25,0.00,,,0.00,WUHU216HW,2014-01-18 23:37:00,
2014-01-18 15:42:00,71.9,33.8,30.05,East,90,0.0,2.0,25,0.00,,,0.00,WUHU216HW,2014-01-18 23:42:00,
2014-01-18 15:47:00,71.7,33.6,30.05,East,90,0.0,0.0,25,0.00,,,0.00,WUHU216HW,2014-01-18 23:47:00,
2014-01-18 15:52:00,71.6,33.5,30.05,East,90,0.0,1.5,25,0.00,,,0.00,WUHU216HW,2014-01-18 23:52:00,
2014-01-18 15:57:00,71.4,33.3,30.05,East,90,1.7,1.7,25,0.00,,,0.00,WUHU216HW,2014-01-18 23:57:00,
2014-01-18 16:02:00,71.4,33.3,30.05,ESE,113,0.6,1.7,25,0.00,,,0.00,WUHU216HW,2014-01-19 00:02:00,
2014-01-18 16:07:00,71.2,33.2,30.05,ESE,113,0.0,0.6,25,0.00,,,0.00,WUHU216HW,2014-01-19 00:07:00,
2014-01-18 16:12:00,70.8,32.9,30.05,ESE,113,0.0,0.4,25,0.00,,,0.00,WUHU216HW,2014-01-19 00:12:00,
2014-01-18 16:17:00,70.7,33.7,30.05,ESE,113,0.0,2.4,26,0.00,,,0.00,WUHU216HW,2014-01-19 00:17:00,
2014-01-18 16:22:00,70.5,33.6,30.05,ESE,113,0.8,6.2,26,0.00,,,0.00,WUHU216HW,2014-01-19 00:22:00,
2014-01-18 16:27:00,70.3,33.4,30.05,ENE,68,0.0,6.2,26,0.00,,,0.00,WUHU216HW,2014-01-19 00:27:00,
2014-01-18 16:33:00,69.9,33.1,30.05,ESE,113,0.0,5.3,26,0.00,,,0.00,WUHU216HW,2014-01-19 00:33:00,
2014-01-18 16:38:00,69.8,33.0,30.04,East,90,0.4,5.3,26,0.00,,,0.00,WUHU216HW,2014-01-19 00:38:00,
2014-01-18 16:43:00,69.6,33.6,30.04,East,90,0.0,4.0,27,0.00,,,0.00,WUHU216HW,2014-01-19 00:43:00,
2014-01-18 16:48:00,69.2,33.5,30.05,ESE,113,1.5,2.4,27,0.00,,,0.00,WUHU216HW,2014-01-19 00:48:00,
2014-01-18 16:53:00,68.9,33.2,30.05,East,90,3.1,3.1,27,0.00,,,0.00,WUHU216HW,2014-01-19 00:53:00,
2014-01-18 16:58:00,68.5,32.9,30.05,East,90,0.0,3.1,27,0.00,,,0.00,WUHU216HW,2014-01-19 00:58:00,
2014-01-18 17:03:00,68.3,33.7,30.05,ESE,113,0.0,2.9,28,0.00,,,0.00,WUHU216HW,2014-01-19 01:03:00,
2014-01-18 17:08:00,68.1,33.5,30.05,SSE,158,0.0,6.2,28,0.00,,,0.00,WUHU216HW,2014-01-19 01:08:00,
2014-01-18 17:13:00,67.6,33.1,30.05,NE,45,0.0,6.2,28,0.00,,,0.00,WUHU216HW,2014-01-19 01:13:00,
2014-01-18 17:18:00,67.2,32.8,30.05,ESE,113,0.0,2.4,28,0.00,,,0.00,WUHU216HW,2014-01-19 01:18:00,
2014-01-18 17:23:00,67.1,32.7,30.05,ESE,113,8.2,8.2,28,0.00,,,0.00,WUHU216HW,2014-01-19 01:23:00,
2014-01-18 17:28:00,66.7,32.3,30.04,East,90,0.0,8.2,28,0.00,,,0.00,WUHU216HW,2014-01-19 01:28:00,
2014-01-18 17:34:00,66.5,32.2,30.05,SE,135,2.4,2.4,28,0.00,,,0.00,WUHU216HW,2014-01-19 01:34:00,
2014-01-18 17:39:00,66.3,32.1,30.05,East,90,0.0,2.4,28,0.00,,,0.00,WUHU216HW,2014-01-19 01:39:00,
2014-01-18 17:44:00,66.0,31.8,30.05,East,90,0.0,2.4,28,0.00,,,0.00,WUHU216HW,2014-01-19 01:44:00,
2014-01-18 17:49:00,66.0,31.8,30.05,East,90,0.8,0.8,28,0.00,,,0.00,WUHU216HW,2014-01-19 01:49:00,
2014-01-18 17:54:00,65.4,31.3,30.04,East,90,0.6,4.0,28,0.00,,,0.00,WUHU216HW,2014-01-19 01:54:00,
2014-01-18 17:59:00,65.3,31.1,30.04,East,90,0.0,4.0,28,0.00,,,0.00,WUHU216HW,2014-01-19 01:59:00,
2014-01-18 18:04:00,65.1,30.0,30.04,ESE,113,0.0,0.6,27,0.00,,,0.00,WUHU216HW,2014-01-19 02:04:00,
2014-01-18 18:09:00,64.9,31.0,30.04,ESE,113,0.0,5.5,28,0.00,,,0.00,WUHU216HW,2014-01-19 02:09:00,
2014-01-18 18:14:00,64.7,30.6,30.04,NE,45,0.0,5.5,28,0.00,,,0.00,WUHU216HW,2014-01-19 02:14:00,
2014-01-18 18:19:00,64.7,30.6,30.04,NE,45,0.0,2.6,28,0.00,,,0.00,WUHU216HW,2014-01-19 02:19:00,
2014-01-18 18:24:00,64.5,30.5,30.04,ESE,113,2.0,2.6,28,0.00,,,0.00,WUHU216HW,2014-01-19 02:24:00,
2014-01-18 18:30:00,64.4,30.3,30.04,SE,135,0.0,2.2,28,0.00,,,0.00,WUHU216HW,2014-01-19 02:30:00,
2014-01-18 18:35:00,64.2,30.2,30.04,SSE,158,0.0,1.3,28,0.00,,,0.00,WUHU216HW,2014-01-19 02:35:00,
2014-01-18 18:40:00,64.2,30.2,30.05,SSE,158,0.0,0.0,28,0.00,,,0.00,WUHU216HW,2014-01-19 02:40:00,
2014-01-18 18:45:00,64.0,31.0,30.05,SSE,158,0.0,0.0,29,0.00,,,0.00,WUHU216HW,2014-01-19 02:45:00,
2014-01-18 18:50:00,63.8,30.8,30.05,SSE,158,0.0,0.0,29,0.00,,,0.00,WUHU216HW,2014-01-19 02:50:00,
2014-01-18 18:55:00,63.6,30.7,30.05,SSE,158,0.0,0.0,29,0.00,,,0.00,WUHU216HW,2014-01-19 02:55:00,
2014-01-18 19:00:00,63.1,31.2,30.05,SSE,158,0.0,0.0,30,0.00,,,0.00,WUHU216HW,2014-01-19 03:00:00,
2014-01-18 19:05:00,62.7,30.9,30.04,SSE,158,0.0,0.0,30,0.00,,,0.00,WUHU216HW,2014-01-19 03:05:00,
2014-01-18 19:10:00,62.4,30.5,30.05,SSE,158,0.0,0.0,30,0.00,,,0.00,WUHU216HW,2014-01-19 03:10:00,
2014-01-18 19:16:00,62.2,30.4,30.04,SSE,158,0.0,0.0,30,0.00,,,0.00,WUHU216HW,2014-01-19 03:16:00,
2014-01-18 19:21:00,61.8,30.0,30.05,SSE,158,0.0,0.0,30,0.00,,,0.00,WUHU216HW,2014-01-19 03:21:00,
2014-01-18 19:26:00,61.5,29.7,30.04,SSE,158,0.0,0.0,30,0.00,,,0.00,WUHU216HW,2014-01-19 03:26:00,
2014-01-18 19:31:00,61.3,30.3,30.05,SSE,158,0.0,0.0,31,0.00,,,0.00,WUHU216HW,2014-01-19 03:31:00,
2014-01-18 19:36:00,61.3,31.0,30.05,SSE,158,0.0,0.0,32,0.00,,,0.00,WUHU216HW,2014-01-19 03:36:00,
2014-01-18 19:41:00,60.9,30.7,30.04,SSE,158,0.0,0.0,32,0.00,,,0.00,WUHU216HW,2014-01-19 03:41:00,
2014-01-18 19:46:00,60.6,29.6,30.04,SSE,158,0.0,0.0,31,0.00,,,0.00,WUHU216HW,2014-01-19 03:46:00,
2014-01-18 19:51:00,60.6,29.6,30.04,SSE,158,0.0,0.0,31,0.00,,,0.00,WUHU216HW,2014-01-19 03:51:00,
2014-01-18 19:56:00,60.4,29.5,30.05,SSE,158,0.0,0.0,31,0.00,,,0.00,WUHU216HW,2014-01-19 03:56:00,
2014-01-18 20:01:00,60.0,29.2,30.05,SSE,158,0.0,0.0,31,0.00,,,0.00,WUHU216HW,2014-01-19 04:01:00,
2014-01-18 20:06:00,59.9,30.5,30.05,SSE,158,0.0,0.0,33,0.00,,,0.00,WUHU216HW,2014-01-19 04:06:00,
2014-01-18 20:12:00,59.7,30.3,30.05,SSE,158,0.0,0.0,33,0.00,,,0.00,WUHU216HW,2014-01-19 04:12:00,
2014-01-18 20:17:00,59.5,30.2,30.05,SE,135,0.0,0.0,33,0.00,,,0.00,WUHU216HW,2014-01-19 04:17:00,
2014-01-18 20:22:00,59.3,30.0,30.05,SE,135,0.0,0.0,33,0.00,,,0.00,WUHU216HW,2014-01-19 04:22:00,
2014-01-18 20:27:00,58.8,29.6,30.05,SE,135,0.0,0.0,33,0.00,,,0.00,WUHU216HW,2014-01-19 04:27:00,
2014-01-18 20:32:00,58.8,30.3,30.04,SE,135,0.0,0.0,34,0.00,,,0.00,WUHU216HW,2014-01-19 04:32:00,
2014-01-18 20:37:00,58.8,30.3,30.05,SE,135,0.0,0.0,34,0.00,,,0.00,WUHU216HW,2014-01-19 04:37:00,
2014-01-18 20:42:00,58.6,30.1,30.05,SE,135,0.0,0.0,34,0.00,,,0.00,WUHU216HW,2014-01-19 04:42:00,
2014-01-18 20:47:00,58.2,29.8,30.05,SE,135,0.0,0.0,34,0.00,,,0.00,WUHU216HW,2014-01-19 04:47:00,
2014-01-18 20:52:00,58.1,29.6,30.05,SE,135,0.0,0.0,34,0.00,,,0.00,WUHU216HW,2014-01-19 04:52:00,
2014-01-18 20:57:00,57.9,29.5,30.05,SE,135,0.0,0.0,34,0.00,,,0.00,WUHU216HW,2014-01-19 04:57:00,
2014-01-18 21:01:00,57.9,29.5,30.05,SE,135,0.0,0.0,34,0.00,,,0.00,WUHU216HW,2014-01-19 05:01:00,
2014-01-18 21:02:00,57.9,29.5,30.04,SE,135,0.0,0.0,34,0.00,,,0.00,WUHU216HW,2014-01-19 05:02:00,
2014-01-18 21:07:00,57.9,29.5,30.04,SE,135,0.0,0.0,34,0.00,,,0.00,WUHU216HW,2014-01-19 05:07:00,
2014-01-18 21:12:00,57.9,29.5,30.04,SE,135,0.0,0.0,34,0.00,,,0.00,WUHU216HW,2014-01-19 05:12:00,
2014-01-18 21:17:00,57.7,29.3,30.04,SE,135,0.0,0.0,34,0.00,,,0.00,WUHU216HW,2014-01-19 05:17:00,
2014-01-18 21:22:00,57.7,29.3,30.04,SE,135,0.0,0.0,34,0.00,,,0.00,WUHU216HW,2014-01-19 05:22:00,
2014-01-18 21:27:00,57.5,29.1,30.05,SE,135,0.0,0.0,34,0.00,,,0.00,WUHU216HW,2014-01-19 05:27:00,
2014-01-18 21:32:00,57.3,29.7,30.05,SE,135,0.0,0.0,35,0.00,,,0.00,WUHU216HW,2014-01-19 05:32:00,
2014-01-18 21:38:00,57.0,29.4,30.05,SE,135,0.0,0.0,35,0.00,,,0.00,WUHU216HW,2014-01-19 05:38:00,
2014-01-18 21:43:00,57.0,29.4,30.05,SE,135,0.0,0.0,35,0.00,,,0.00,WUHU216HW,2014-01-19 05:43:00,
2014-01-18 21:48:00,56.8,29.2,30.05,SE,135,0.0,0.0,35,0.00,,,0.00,WUHU216HW,2014-01-19 05:48:00,
2014-01-18 21:53:00,56.8,29.2,30.05,SE,135,0.0,0.0,35,0.00,,,0.00,WUHU216HW,2014-01-19 05:53:00,
2014-01-18 21:58:00,56.4,28.9,30.05,SE,135,0.0,0.0,35,0.00,,,0.00,WUHU216HW,2014-01-19 05:58:00,
2014-01-18 22:03:00,56.4,28.9,30.06,SE,135,0.0,0.0,35,0.00,,,0.00,WUHU216HW,2014-01-19 06:03:00,
2014-01-18 22:08:00,56.4,28.9,30.06,SE,135,0.0,0.0,35,0.00,,,0.00,WUHU216HW,2014-01-19 06:08:00,
2014-01-18 22:13:00,56.3,28.7,30.06,SE,135,0.0,0.0,35,0.00,,,0.00,WUHU216HW,2014-01-19 06:13:00,
2014-01-18 22:18:00,55.9,29.1,30.06,SE,135,0.0,0.0,36,0.00,,,0.00,WUHU216HW,2014-01-19 06:18:00,
2014-01-18 22:23:00,55.9,29.1,30.06,SE,135,0.0,0.0,36,0.00,,,0.00,WUHU216HW,2014-01-19 06:23:00,
2014-01-18 22:28:00,55.7,28.9,30.06,SE,135,0.0,0.0,36,0.00,,,0.00,WUHU216HW,2014-01-19 06:28:00,
2014-01-18 22:33:00,55.5,28.8,30.06,SE,135,0.0,0.0,36,0.00,,,0.00,WUHU216HW,2014-01-19 06:33:00,
2014-01-18 22:39:00,55.5,28.8,30.06,SE,135,0.0,0.0,36,0.00,,,0.00,WUHU216HW,2014-01-19 06:39:00,
2014-01-18 22:44:00,55.4,28.6,30.06,SE,135,0.0,0.0,36,0.00,,,0.00,WUHU216HW,2014-01-19 06:44:00,
2014-01-18 22:49:00,55.2,28.4,30.06,SE,135,0.0,0.0,36,0.00,,,0.00,WUHU216HW,2014-01-19 06:49:00,
2014-01-18 22:54:00,55.0,28.3,30.06,SE,135,0.0,0.0,36,0.00,,,0.00,WUHU216HW,2014-01-19 06:54:00,
2014-01-18 22:59:00,55.0,28.3,30.06,SE,135,0.0,0.0,36,0.00,,,0.00,WUHU216HW,2014-01-19 06:59:00,
2014-01-18 23:04:00,54.8,28.1,30.06,SE,135,0.0,0.0,36,0.00,,,0.00,WUHU216HW,2014-01-19 07:04:00,
2014-01-18 23:09:00,54.6,28.0,30.06,SE,135,0.0,0.0,36,0.00,,,0.00,WUHU216HW,2014-01-19 07:09:00,
2014-01-18 23:14:00,54.6,28.7,30.06,SE,135,0.0,0.0,37,0.00,,,0.00,WUHU216HW,2014-01-19 07:14:00,
2014-01-18 23:19:00,54.5,28.5,30.06,SE,135,0.0,0.0,37,0.00,,,0.00,WUHU216HW,2014-01-19 07:19:00,
2014-01-18 23:24:00,54.3,28.4,30.06,SE,135,0.0,0.0,37,0.00,,,0.00,WUHU216HW,2014-01-19 07:24:00,
2014-01-18 23:29:00,54.3,28.4,30.06,SE,135,0.0,0.0,37,0.00,,,0.00,WUHU216HW,2014-01-19 07:29:00,
2014-01-18 23:34:00,54.1,28.9,30.05,SE,135,0.0,0.0,38,0.00,,,0.00,WUHU216HW,2014-01-19 07:34:00,
2014-01-18 23:40:00,53.9,28.7,30.06,SE,135,0.0,0.0,38,0.00,,,0.00,WUHU216HW,2014-01-19 07:40:00,
2014-01-18 23:45:00,53.7,29.3,30.05,SE,135,0.0,0.0,39,0.00,,,0.00,WUHU216HW,2014-01-19 07:45:00,
2014-01-18 23:50:00,53.7,28.6,30.05,SE,135,0.0,0.0,38,0.00,,,0.00,WUHU216HW,2014-01-19 07:50:00,
2014-01-18 23:55:00,53.4,28.3,30.05,SE,135,0.0,0.0,38,0.00,,,0.00,WUHU216HW,2014-01-19 07:55:00,